Location: Campillo
(40.8621°N, 4.2488°W)
Time: 17:45:48
(UTC+00:00)

Cosmos 158 Rocket - Pass Details

Date: 02 October 2021
Orbit: 699 x 792 km, 74.0° (Epoch: 27 October)

Event Time Altitude Azimuth Distance (km) Brightness Sun altitude
Rises 19:35:28 0° 331° (NNW) 3,127 7.8 -19.3°
Reaches altitude 10° 19:38:00 10° 322° (NW) 2,192 7.1 -19.8°
Maximum altitude 19:42:21 33° 259° (W) 1,183 5.5 -20.6°
Drops below altitude 10° 19:46:40 10° 196° (SSW) 2,155 6.3 -21.4°
Sets 19:49:09 0° 187° (S) 3,066 7.1 -21.9°
